User: anonymous   Login
Location: ??
(35.5052°N, 139.7262°E)
Time: 13:53:24
(UTC+00:00)
Language:

Cosmos 2278 Rocket - Orbit

View from above orbital plane
View from above orbital plane
View from above satellite
View from above satellite

Ground track
Ground track

The orbit data is extracted from the following two-line orbital elements,

1 23088U 94023B   21264.70127251  .00000003  00000-0  26143-4 0  9992
2 23088  70.9986 252.9836 0005739 262.6909  97.3561 14.14699698415542
Epoch (UTC): 21 September 2021 16:49:49
Eccentricity: 0.0005739
inclination: 70.9986°
perigee height: 839 km
apogee height: 847 km
right ascension of ascending node: 252.9836°
argument of perigee: 262.6909°
revolutions per day: 14.14699698
mean anomaly at epoch: 97.3561°
orbit number at epoch: 41554

The dashed part of the orbit path shows where the satellite is in the earth's shadow,  

DLR